Time,TemperatureF,DewpointF,PressureIn,WindDirection,WindDirectionDegrees,WindSpeedMPH,WindSpeedGustMPH,Humidity,HourlyPrecipIn,Conditions,Clouds,dailyrainin,SoftwareType,DateUTC
2013-05-22 00:06:00,67.5,66.0,29.86,NW,326,4.0,-999.0,96,-99.99,,,0.00,weatherlink.com 1.10,2013-05-22 05:06:00,
2013-05-22 00:21:00,67.5,66.0,29.86,WNW,292,1.0,-999.0,96,-99.99,,,0.00,weatherlink.com 1.10,2013-05-22 05:21:00,
2013-05-22 00:36:00,67.5,66.0,29.85,WNW,292,2.0,-999.0,96,-99.99,,,0.00,weatherlink.com 1.10,2013-05-22 05:36:00,
2013-05-22 00:51:00,67.6,67.0,29.87,WNW,292,0.0,-999.0,96,-99.99,,,0.00,weatherlink.com 1.10,2013-05-22 05:51:00,
2013-05-22 01:06:00,67.7,67.0,29.88,WNW,292,0.0,-999.0,97,-99.99,,,0.00,weatherlink.com 1.10,2013-05-22 06:06:00,
2013-05-22 01:21:00,67.9,67.0,29.88,WNW,292,0.0,-999.0,97,-99.99,,,0.00,weatherlink.com 1.10,2013-05-22 06:21:00,
2013-05-22 01:36:00,68.0,67.0,29.86,WNW,292,2.0,-999.0,97,-99.99,,,0.00,weatherlink.com 1.10,2013-05-22 06:36:00,
2013-05-22 01:51:00,68.0,67.0,29.86,WSW,258,3.0,-999.0,96,-99.99,,,0.00,weatherlink.com 1.10,2013-05-22 06:51:00,
2013-05-22 02:06:00,67.9,67.0,29.86,WNW,289,1.0,-999.0,97,-99.99,,,0.00,weatherlink.com 1.10,2013-05-22 07:06:00,
2013-05-22 02:21:00,67.7,67.0,29.86,WNW,288,5.0,-999.0,97,-99.99,,,0.00,weatherlink.com 1.10,2013-05-22 07:21:00,
2013-05-22 02:36:00,67.3,66.0,29.85,NW,316,5.0,-999.0,96,-99.99,,,0.00,weatherlink.com 1.10,2013-05-22 07:36:00,
2013-05-22 02:51:00,66.5,66.0,29.85,NW,313,4.0,-999.0,97,-99.99,,,0.00,weatherlink.com 1.10,2013-05-22 07:51:00,
2013-05-22 03:06:00,66.2,65.0,29.85,NW,314,5.0,-999.0,96,-99.99,,,0.00,weatherlink.com 1.10,2013-05-22 08:06:00,
2013-05-22 03:21:00,65.9,65.0,29.85,NW,314,4.0,-999.0,97,-99.99,,,0.00,weatherlink.com 1.10,2013-05-22 08:21:00,
2013-05-22 03:36:00,65.6,65.0,29.85,WNW,283,4.0,-999.0,97,-99.99,,,0.00,weatherlink.com 1.10,2013-05-22 08:36:00,
2013-05-22 03:51:00,65.5,65.0,29.85,WNW,299,2.0,-999.0,97,-99.99,,,0.00,weatherlink.com 1.10,2013-05-22 08:51:00,
2013-05-22 04:06:00,65.3,65.0,29.86,WNW,302,3.0,-999.0,97,-99.99,,,0.00,weatherlink.com 1.10,2013-05-22 09:06:00,
2013-05-22 04:21:00,65.1,64.0,29.86,NW,311,4.0,-999.0,97,-99.99,,,0.00,weatherlink.com 1.10,2013-05-22 09:21:00,
2013-05-22 04:36:00,65.1,64.0,29.86,NW,311,2.0,-999.0,97,-99.99,,,0.00,weatherlink.com 1.10,2013-05-22 09:36:00,
2013-05-22 04:51:00,65.1,64.0,29.87,NW,311,3.0,-999.0,97,-99.99,,,0.00,weatherlink.com 1.10,2013-05-22 09:51:00,
2013-05-22 05:06:00,65.2,64.0,29.86,NNW,333,5.0,-999.0,97,-99.99,,,0.00,weatherlink.com 1.10,2013-05-22 10:06:00,
2013-05-22 05:21:00,65.0,64.0,29.87,NW,326,2.0,-999.0,97,-99.99,,,0.00,weatherlink.com 1.10,2013-05-22 10:21:00,
2013-05-22 05:36:00,64.9,64.0,29.86,NW,326,0.0,-999.0,97,-99.99,,,0.00,weatherlink.com 1.10,2013-05-22 10:36:00,
2013-05-22 05:51:00,64.9,64.0,29.86,NW,326,0.0,-999.0,97,-99.99,,,0.00,weatherlink.com 1.10,2013-05-22 10:51:00,
2013-05-22 06:06:00,64.9,64.0,29.87,NW,326,0.0,-999.0,97,-99.99,,,0.00,weatherlink.com 1.10,2013-05-22 11:06:00,
2013-05-22 06:21:00,64.9,64.0,29.88,NW,326,4.0,-999.0,97,-99.99,,,0.00,weatherlink.com 1.10,2013-05-22 11:21:00,
2013-05-22 06:36:00,64.9,64.0,29.89,NNW,343,3.0,-999.0,97,-99.99,,,0.00,weatherlink.com 1.10,2013-05-22 11:36:00,
2013-05-22 06:51:00,64.9,64.0,29.90,NE,37,7.0,-999.0,97,-99.99,,,0.00,weatherlink.com 1.10,2013-05-22 11:51:00,
2013-05-22 07:06:00,64.7,64.0,29.90,NNE,30,1.0,-999.0,97,-99.99,,,0.00,weatherlink.com 1.10,2013-05-22 12:06:00,
2013-05-22 07:22:00,64.8,64.0,29.91,NNE,12,4.0,-999.0,97,-99.99,,,0.00,weatherlink.com 1.10,2013-05-22 12:22:00,
2013-05-22 07:37:00,64.6,64.0,29.92,NE,35,2.0,-999.0,97,-99.99,,,0.00,weatherlink.com 1.10,2013-05-22 12:37:00,
2013-05-22 07:52:00,64.7,64.0,29.92,NNW,343,4.0,-999.0,98,-99.99,,,0.00,weatherlink.com 1.10,2013-05-22 12:52:00,
2013-05-22 08:07:00,64.8,64.0,29.91,NNE,15,0.0,-999.0,98,-99.99,,,0.00,weatherlink.com 1.10,2013-05-22 13:07:00,
2013-05-22 08:22:00,65.0,64.0,29.93,NNE,20,2.0,-999.0,97,-99.99,,,0.00,weatherlink.com 1.10,2013-05-22 13:22:00,
2013-05-22 08:37:00,64.8,64.0,29.93,NNE,12,0.0,-999.0,97,-99.99,,,0.00,weatherlink.com 1.10,2013-05-22 13:37:00,
2013-05-22 08:52:00,64.9,64.0,29.93,North,8,4.0,-999.0,98,-99.99,,,0.00,weatherlink.com 1.10,2013-05-22 13:52:00,
2013-05-22 09:07:00,65.1,64.0,29.93,North,360,6.0,-999.0,97,-99.99,,,0.00,weatherlink.com 1.10,2013-05-22 14:07:00,
2013-05-22 09:22:00,65.2,65.0,29.93,North,10,5.0,-999.0,98,-99.99,,,0.00,weatherlink.com 1.10,2013-05-22 14:22:00,
2013-05-22 09:37:00,65.3,65.0,29.93,NNE,14,5.0,-999.0,98,-99.99,,,0.00,weatherlink.com 1.10,2013-05-22 14:37:00,
2013-05-22 09:52:00,65.8,65.0,29.93,North,2,2.0,-999.0,97,-99.99,,,0.00,weatherlink.com 1.10,2013-05-22 14:52:00,
2013-05-22 10:07:00,66.4,66.0,29.93,NE,49,2.0,-999.0,97,-99.99,,,0.00,weatherlink.com 1.10,2013-05-22 15:07:00,
2013-05-22 10:22:00,67.2,66.0,29.93,SE,136,2.0,-999.0,97,-99.99,,,0.00,weatherlink.com 1.10,2013-05-22 15:22:00,
2013-05-22 10:37:00,68.6,68.0,29.94,SE,127,4.0,-999.0,97,-99.99,,,0.00,weatherlink.com 1.10,2013-05-22 15:37:00,
2013-05-22 10:52:00,69.1,68.0,29.95,ESE,114,1.0,-999.0,95,-99.99,,,0.00,weatherlink.com 1.10,2013-05-22 15:52:00,
2013-05-22 11:07:00,69.5,68.0,29.95,SE,143,0.0,-999.0,95,-99.99,,,0.00,weatherlink.com 1.10,2013-05-22 16:07:00,
2013-05-22 11:22:00,69.8,68.0,29.95,SE,124,4.0,-999.0,93,-99.99,,,0.00,weatherlink.com 1.10,2013-05-22 16:22:00,
2013-05-22 11:37:00,70.1,68.0,29.95,SE,135,6.0,-999.0,92,-99.99,,,0.00,weatherlink.com 1.10,2013-05-22 16:37:00,
2013-05-22 11:52:00,70.9,68.0,29.95,ESE,122,6.0,-999.0,91,-99.99,,,0.00,weatherlink.com 1.10,2013-05-22 16:52:00,
2013-05-22 12:07:00,71.7,69.0,29.95,ESE,112,7.0,-999.0,92,-99.99,,,0.00,weatherlink.com 1.10,2013-05-22 17:07:00,
2013-05-22 12:22:00,73.0,69.0,29.95,SE,132,4.0,-999.0,88,-99.99,,,0.00,weatherlink.com 1.10,2013-05-22 17:22:00,
2013-05-22 12:37:00,73.6,70.0,29.95,ENE,69,2.0,-999.0,88,-99.99,,,0.00,weatherlink.com 1.10,2013-05-22 17:37:00,
2013-05-22 12:52:00,75.1,71.0,29.94,ESE,108,1.0,-999.0,86,-99.99,,,0.00,weatherlink.com 1.10,2013-05-22 17:52:00,
2013-05-22 13:07:00,76.5,71.0,29.94,South,186,2.0,-999.0,82,-99.99,,,0.00,weatherlink.com 1.10,2013-05-22 18:07:00,
2013-05-22 13:22:00,78.0,73.0,29.93,East,93,1.0,-999.0,85,-99.99,,,0.00,weatherlink.com 1.10,2013-05-22 18:22:00,
2013-05-22 13:37:00,78.4,72.0,29.93,ESE,104,0.0,-999.0,81,-99.99,,,0.00,weatherlink.com 1.10,2013-05-22 18:37:00,
2013-05-22 13:52:00,79.4,74.0,29.92,NE,45,4.0,-999.0,82,-99.99,,,0.00,weatherlink.com 1.10,2013-05-22 18:52:00,
2013-05-22 14:07:00,80.6,74.0,29.92,East,84,0.0,-999.0,79,-99.99,,,0.00,weatherlink.com 1.10,2013-05-22 19:07:00,
2013-05-22 14:22:00,81.7,74.0,29.91,SSW,206,2.0,-999.0,77,-99.99,,,0.00,weatherlink.com 1.10,2013-05-22 19:22:00,
2013-05-22 14:37:00,82.3,73.0,29.91,South,187,0.0,-999.0,73,-99.99,,,0.00,weatherlink.com 1.10,2013-05-22 19:37:00,
2013-05-22 14:52:00,82.0,74.0,29.90,WSW,249,5.0,-999.0,76,-99.99,,,0.00,weatherlink.com 1.10,2013-05-22 19:52:00,
2013-05-22 15:07:00,82.7,74.0,29.89,SSW,198,0.0,-999.0,74,-99.99,,,0.00,weatherlink.com 1.10,2013-05-22 20:07:00,
2013-05-22 15:22:00,82.2,73.0,29.89,SSE,150,0.0,-999.0,74,-99.99,,,0.00,weatherlink.com 1.10,2013-05-22 20:22:00,
2013-05-22 15:37:00,83.5,73.0,29.89,SSW,202,0.0,-999.0,71,-99.99,,,0.00,weatherlink.com 1.10,2013-05-22 20:37:00,
2013-05-22 15:53:00,83.9,74.0,29.88,SSW,201,0.0,-999.0,72,-99.99,,,0.00,weatherlink.com 1.10,2013-05-22 20:53:00,
2013-05-22 16:08:00,84.1,74.0,29.88,SW,231,0.0,-999.0,71,-99.99,,,0.00,weatherlink.com 1.10,2013-05-22 21:08:00,
2013-05-22 16:23:00,84.3,74.0,29.87,SE,143,4.0,-999.0,70,-99.99,,,0.00,weatherlink.com 1.10,2013-05-22 21:23:00,
2013-05-22 16:38:00,83.9,74.0,29.87,SE,141,2.0,-999.0,71,-99.99,,,0.00,weatherlink.com 1.10,2013-05-22 21:38:00,
2013-05-22 16:53:00,84.2,73.0,29.87,SE,144,0.0,-999.0,68,-99.99,,,0.00,weatherlink.com 1.10,2013-05-22 21:53:00,
2013-05-22 17:08:00,84.4,72.0,29.87,SE,145,0.0,-999.0,66,-99.99,,,0.00,weatherlink.com 1.10,2013-05-22 22:08:00,
2013-05-22 17:23:00,85.6,71.0,29.86,West,261,2.0,-999.0,62,-99.99,,,0.00,weatherlink.com 1.10,2013-05-22 22:23:00,
2013-05-22 17:38:00,86.0,73.0,29.86,West,261,0.0,-999.0,65,-99.99,,,0.00,weatherlink.com 1.10,2013-05-22 22:38:00,
2013-05-22 17:53:00,85.0,73.0,29.86,ESE,121,6.0,-999.0,67,-99.99,,,0.00,weatherlink.com 1.10,2013-05-22 22:53:00,
2013-05-22 18:08:00,84.7,73.0,29.86,SE,126,0.0,-999.0,67,-99.99,,,0.00,weatherlink.com 1.10,2013-05-22 23:08:00,
2013-05-22 18:23:00,84.9,72.0,29.86,SE,126,0.0,-999.0,66,-99.99,,,0.00,weatherlink.com 1.10,2013-05-22 23:23:00,
2013-05-22 18:38:00,85.1,72.0,29.86,ESE,109,0.0,-999.0,66,-99.99,,,0.00,weatherlink.com 1.10,2013-05-22 23:38:00,
2013-05-22 18:53:00,85.1,73.0,29.86,ESE,110,4.0,-999.0,68,-99.99,,,0.00,weatherlink.com 1.10,2013-05-22 23:53:00,
2013-05-22 19:08:00,84.2,73.0,29.86,ESE,108,0.0,-999.0,70,-99.99,,,0.00,weatherlink.com 1.10,2013-05-23 00:08:00,
2013-05-22 19:23:00,83.4,76.0,29.86,SSW,201,0.0,-999.0,77,-99.99,,,0.00,weatherlink.com 1.10,2013-05-23 00:23:00,
2013-05-22 19:38:00,82.4,76.0,29.86,SE,124,4.0,-999.0,80,-99.99,,,0.00,weatherlink.com 1.10,2013-05-23 00:38:00,
2013-05-22 19:53:00,81.3,75.0,29.87,ESE,103,4.0,-999.0,82,-99.99,,,0.00,weatherlink.com 1.10,2013-05-23 00:53:00,
2013-05-22 20:08:00,80.4,75.0,29.87,East,97,1.0,-999.0,83,-99.99,,,0.00,weatherlink.com 1.10,2013-05-23 01:08:00,
2013-05-22 20:23:00,79.7,75.0,29.87,East,97,0.0,-999.0,85,-99.99,,,0.00,weatherlink.com 1.10,2013-05-23 01:23:00,
2013-05-22 20:38:00,78.9,74.0,29.88,East,96,4.0,-999.0,86,-99.99,,,0.00,weatherlink.com 1.10,2013-05-23 01:38:00,
2013-05-22 20:53:00,78.2,74.0,29.88,ESE,120,2.0,-999.0,87,-99.99,,,0.00,weatherlink.com 1.10,2013-05-23 01:53:00,
2013-05-22 21:08:00,77.7,74.0,29.89,ESE,109,4.0,-999.0,88,-99.99,,,0.00,weatherlink.com 1.10,2013-05-23 02:08:00,
2013-05-22 21:23:00,77.4,74.0,29.89,SE,132,2.0,-999.0,89,-99.99,,,0.00,weatherlink.com 1.10,2013-05-23 02:23:00,
2013-05-22 21:53:00,76.8,74.0,29.91,SE,142,4.0,-999.0,90,-99.99,,,0.00,weatherlink.com 1.10,2013-05-23 02:53:00,
2013-05-22 22:08:00,76.4,73.0,29.91,SE,141,4.0,-999.0,90,-99.99,,,0.00,weatherlink.com 1.10,2013-05-23 03:08:00,
2013-05-22 22:23:00,76.1,73.0,29.91,SE,141,0.0,-999.0,91,-99.99,,,0.00,weatherlink.com 1.10,2013-05-23 03:23:00,
2013-05-22 22:38:00,75.8,73.0,29.92,SE,141,4.0,-999.0,91,-99.99,,,0.00,weatherlink.com 1.10,2013-05-23 03:38:00,
2013-05-22 22:53:00,75.5,73.0,29.92,SE,141,4.0,-999.0,91,-99.99,,,0.00,weatherlink.com 1.10,2013-05-23 03:53:00,
2013-05-22 23:08:00,75.4,73.0,29.93,SE,141,2.0,-999.0,92,-99.99,,,0.00,weatherlink.com 1.10,2013-05-23 04:08:00,